Weather History for Duncan, OK

Change the Weather History Date:

Tuesday, July 30, 2013

  Actual Average (KLAW) Record (KLAW)
Temperature  
Mean Temperature 84 °F -  
Max Temperature 95 °F 95 °F 109 °F (2012)
Min Temperature 73 °F 70 °F 54 °F (1982)
Cooling Degree Days 19    
Growing Degree Days 34 (Base 50)    
Moisture  
Dew Point 72 °F    
Average Humidity 67    
Maximum Humidity 94    
Minimum Humidity 47    
Precipitation  
Precipitation 0.00 in - - ()
Sea Level Pressure  
Sea Level Pressure 30.00 in    
Wind  
Wind Speed 9 mph (SSE)    
Max Wind Speed 16 mph    
Max Gust Speed 22 mph    
Visibility 10 miles    
Events      
Averages and records for this station are not official NWS values.
T = Trace of Precipitation, MM = Missing Value Source: NWS Daily Summary

Daily Weather History Graph

Daily Weather History Graph

Search for Another Location

Airport:

Trip Planner

Search our weather history database for the weather conditions in past years. The results will help you decide how hot, cold, wet, or windy it might be!

Date:

Astronomy

Jul. 30, 2013 Rise Set
Actual Time 6:41 AM CDT 8:35 PM CDT
Civil Twilight 6:13 AM CDT 9:02 PM CDT
Nautical Twilight 5:39 AM CDT 9:36 PM CDT
Astronomical Twilight 5:03 AM CDT 10:11 PM CDT
Moon 12:57 AM CDT (7/30) 2:57 PM CDT (7/30)
Length of Visible Light 14h 49m
Length of Day
13h 53m
Last Quarter, 41% of the Moon is Illuminated
Jul 30
Last Quarter
Aug 6
New
Aug 14
First Quarter
Aug 20
Full
Aug 28
Last Quarter

Hourly Weather History & Observations

Time (CDT) Temp. Heat Index Dew Point Humidity Pressure Visibility Wind Dir Wind Speed Gust Speed Precip Events Conditions
12:15 AM 82.4 °F 85.4 °F 68.0 °F 62% 29.92 in 10.0 mi South 12.7 mph - N/A   Clear
12:35 AM 82.4 °F 85.4 °F 68.0 °F 62% 29.93 in 10.0 mi South 13.8 mph - N/A   Clear
12:55 AM 82.4 °F 84.6 °F 66.2 °F 58% 29.94 in 10.0 mi South 10.4 mph - N/A   Clear
1:15 AM 82.4 °F 84.6 °F 66.2 °F 58% 29.94 in 10.0 mi South 8.1 mph - N/A   Clear
1:35 AM 80.6 °F 82.7 °F 66.2 °F 61% 29.95 in 10.0 mi South 6.9 mph - N/A   Clear
1:55 AM 80.6 °F 83.2 °F 68.0 °F 65% 29.96 in 10.0 mi South 4.6 mph - N/A   Clear
2:15 AM 80.6 °F 83.2 °F 68.0 °F 65% 29.99 in 10.0 mi Calm Calm - N/A   Scattered Clouds
2:35 AM 80.6 °F 83.2 °F 68.0 °F 65% 30.01 in 10.0 mi NNE 10.4 mph - N/A   Mostly Cloudy
2:55 AM 80.6 °F 83.2 °F 68.0 °F 65% 30.01 in 10.0 mi ENE 4.6 mph - N/A   Overcast
3:15 AM 80.6 °F 83.2 °F 68.0 °F 65% 30.02 in 10.0 mi NE 3.5 mph - N/A   Overcast
3:35 AM 80.6 °F 83.2 °F 68.0 °F 65% 30.01 in 10.0 mi SE 5.8 mph - N/A   Overcast
3:55 AM 80.6 °F 83.2 °F 68.0 °F 65% 30.01 in 10.0 mi ESE 6.9 mph - N/A   Overcast
4:15 AM 80.6 °F 83.2 °F 68.0 °F 65% 30.02 in 10.0 mi ESE 6.9 mph - N/A   Overcast
4:35 AM 80.6 °F 83.2 °F 68.0 °F 65% 30.01 in 10.0 mi ESE 6.9 mph - N/A   Overcast
4:55 AM 78.8 °F - 69.8 °F 74% 30.02 in 10.0 mi East 8.1 mph - N/A   Scattered Clouds
5:15 AM 77.0 °F - 69.8 °F 78% 30.02 in 10.0 mi East 8.1 mph - N/A   Clear
5:35 AM 75.2 °F - 71.6 °F 89% 30.02 in 10.0 mi East 9.2 mph - N/A   Clear
5:55 AM 73.4 °F - 71.6 °F 94% 30.02 in 10.0 mi East 8.1 mph - N/A   Clear
6:15 AM 73.4 °F - 71.6 °F 94% 30.02 in 10.0 mi ESE 8.1 mph - N/A   Clear
6:35 AM 73.4 °F - 71.6 °F 94% 30.01 in 10.0 mi SE 8.1 mph - N/A   Clear
6:55 AM 77.0 °F - 69.8 °F 78% 30.02 in 10.0 mi SSE 11.5 mph - N/A   Clear
7:15 AM 77.0 °F - 68.0 °F 74% 30.01 in 10.0 mi SSE 12.7 mph - N/A   Clear
7:35 AM 77.0 °F - 68.0 °F 74% 30.01 in 10.0 mi South 12.7 mph - N/A   Clear
7:55 AM 77.0 °F - 68.0 °F 74% 30.00 in 10.0 mi South 16.1 mph - N/A   Clear
8:15 AM 77.0 °F - 69.8 °F 78% 30.01 in 10.0 mi South 13.8 mph - N/A   Clear
8:35 AM 77.0 °F - 69.8 °F 78% 30.01 in 10.0 mi South 13.8 mph - N/A   Clear
8:55 AM 78.8 °F - 69.8 °F 74% 30.01 in 10.0 mi South 13.8 mph - N/A   Clear
9:15 AM 80.6 °F 84.6 °F 71.6 °F 74% 30.01 in 10.0 mi South 16.1 mph 19.6 mph N/A   Scattered Clouds
9:35 AM 80.6 °F 84.6 °F 71.6 °F 74% 30.01 in 10.0 mi South 12.7 mph - N/A   Scattered Clouds
9:55 AM 82.4 °F 87.2 °F 71.6 °F 70% 30.01 in 10.0 mi SSW 15.0 mph 19.6 mph N/A   Scattered Clouds
10:15 AM 82.4 °F 87.2 °F 71.6 °F 70% 30.01 in 10.0 mi SSW 15.0 mph 21.9 mph N/A   Clear
10:35 AM 86.0 °F 93.4 °F 73.4 °F 66% 30.01 in 10.0 mi SSW 16.1 mph 20.7 mph N/A   Clear
10:55 AM 86.0 °F 93.4 °F 73.4 °F 66% 30.02 in 10.0 mi SSW 13.8 mph 18.4 mph N/A   Clear
11:15 AM 86.0 °F 93.4 °F 73.4 °F 66% 30.02 in 10.0 mi SSW 10.4 mph 18.4 mph N/A   Scattered Clouds
11:55 AM 87.8 °F 95.6 °F 73.4 °F 62% 30.03 in 10.0 mi SSW 12.7 mph 17.3 mph N/A   Clear
12:15 PM 89.6 °F 98.2 °F 73.4 °F 59% 30.03 in 10.0 mi SSW 9.2 mph - N/A   Clear
12:35 PM 89.6 °F 98.2 °F 73.4 °F 59% 30.03 in 10.0 mi SSW 9.2 mph - N/A   Clear
1:15 PM 91.4 °F 100.1 °F 73.4 °F 55% 30.02 in 10.0 mi SW 11.5 mph 16.1 mph N/A   Scattered Clouds
1:35 PM 91.4 °F 100.1 °F 73.4 °F 55% 30.01 in 10.0 mi SSW 6.9 mph - N/A   Scattered Clouds
1:55 PM 91.4 °F 100.1 °F 73.4 °F 55% 30.01 in 10.0 mi SSW 6.9 mph 16.1 mph N/A   Scattered Clouds
2:15 PM 91.4 °F 98.4 °F 71.6 °F 52% 30.00 in 10.0 mi SW 6.9 mph - N/A   Scattered Clouds
2:35 PM 93.2 °F 100.5 °F 71.6 °F 49% 30.00 in 10.0 mi SSW 6.9 mph - N/A   Scattered Clouds
2:55 PM 93.2 °F 100.5 °F 71.6 °F 49% 30.00 in 10.0 mi WSW 5.8 mph - N/A   Scattered Clouds
3:15 PM 95.0 °F 103.2 °F 71.6 °F 47% 29.99 in 10.0 mi SSW 8.1 mph - N/A   Scattered Clouds
3:35 PM 95.0 °F 103.2 °F 71.6 °F 47% 29.99 in 10.0 mi SSW 4.6 mph - N/A   Clear
3:55 PM 93.2 °F 100.5 °F 71.6 °F 49% 29.99 in 10.0 mi Calm Calm - N/A   Scattered Clouds
4:15 PM 95.0 °F 104.5 °F 73.4 °F 49% 29.99 in 10.0 mi South 6.9 mph - N/A   Mostly Cloudy
4:35 PM 95.0 °F 104.5 °F 73.4 °F 49% 29.98 in 10.0 mi SSW 6.9 mph - N/A   Scattered Clouds
4:55 PM 93.2 °F 102.4 °F 73.4 °F 52% 29.98 in 10.0 mi South 5.8 mph - N/A   Clear
5:15 PM 95.0 °F 104.5 °F 73.4 °F 49% 29.97 in 10.0 mi SSE 6.9 mph - N/A   Scattered Clouds
5:35 PM 91.4 °F 100.1 °F 73.4 °F 55% 29.97 in 10.0 mi SSE 6.9 mph - N/A   Scattered Clouds
5:55 PM 91.4 °F 100.1 °F 73.4 °F 55% 29.97 in 10.0 mi South 9.2 mph - N/A   Mostly Cloudy
6:15 PM 91.4 °F 102.5 °F 75.2 °F 59% 29.97 in 10.0 mi South 6.9 mph - N/A   Scattered Clouds
6:35 PM 89.6 °F 98.2 °F 73.4 °F 59% 29.97 in 10.0 mi South 8.1 mph - N/A   Scattered Clouds
6:55 PM 87.8 °F 97.6 °F 75.2 °F 66% 29.96 in 10.0 mi South 3.5 mph - N/A   Scattered Clouds
7:15 PM 89.6 °F 99.8 °F 75.2 °F 62% 29.96 in 10.0 mi SE 3.5 mph - N/A   Scattered Clouds
7:35 PM 87.8 °F 99.7 °F 77.0 °F 70% 29.96 in 10.0 mi NE 3.5 mph - N/A   Scattered Clouds
7:55 PM 87.8 °F 99.7 °F 77.0 °F 70% 29.98 in 10.0 mi NE 5.8 mph - N/A   Scattered Clouds
8:15 PM 86.0 °F 96.9 °F 77.0 °F 74% 29.99 in 10.0 mi NNE 5.8 mph - N/A   Mostly Cloudy
8:35 PM 86.0 °F 96.9 °F 77.0 °F 74% 30.00 in 10.0 mi East 12.7 mph 19.6 mph N/A   Mostly Cloudy
8:55 PM 80.6 °F 87.1 °F 77.0 °F 89% 30.00 in 10.0 mi East 9.2 mph - N/A   Mostly Cloudy
9:15 PM 80.6 °F 84.6 °F 71.6 °F 74% 30.02 in 10.0 mi East 9.2 mph - N/A   Mostly Cloudy
9:35 PM 80.6 °F 84.6 °F 71.6 °F 74% 30.02 in 10.0 mi East 5.8 mph - N/A   Mostly Cloudy
9:55 PM 78.8 °F - 73.4 °F 83% 30.02 in 10.0 mi East 4.6 mph - N/A   Scattered Clouds
10:15 PM 78.8 °F - 73.4 °F 83% 30.02 in 10.0 mi NE 3.5 mph - N/A   Scattered Clouds
10:35 PM 78.8 °F - 71.6 °F 78% 30.02 in 10.0 mi Calm Calm - N/A   Clear
10:55 PM 78.8 °F - 73.4 °F 83% 30.02 in 10.0 mi NE 5.8 mph - N/A   Mostly Cloudy
11:15 PM 78.8 °F - 73.4 °F 83% 30.02 in 10.0 mi NE 5.8 mph - N/A   Mostly Cloudy
11:35 PM 78.8 °F - 73.4 °F 83% 30.02 in 10.0 mi NE 4.6 mph - N/A   Mostly Cloudy
11:55 PM 78.8 °F - 71.6 °F 78% 30.02 in 10.0 mi NE 3.5 mph - N/A   Scattered Clouds